Simultaneous Nadir Overpasses (SNOs) Predictions

Prediction of SNOs near equator between AQUA and NPP Satellite Orbit:

Table of predicted SNOs near equator for the next 14.0 days since TLE Epoch: 1/23/2015
Index Date (AQUA) Time (AQUA) AQUA Lat,Lon Date (NPP) Time (NPP) NPP Lat,Lon Distance(km) Time Diff (sec)
1 01/24/2015 13:15:24 -29.94,-179.60 01/24/2015 13:07:07 -30.12,-178.86 73.51 497
2 01/24/2015 14:04:55 29.98, -11.99 01/24/2015 13:57:55 30.06, -11.55 42.77 420
3 01/24/2015 14:54:18 -30.00, 155.67 01/24/2015 14:48:35 -30.01, 155.79 12.27 343
4 01/24/2015 15:38:56 12.37, -32.54 01/24/2015 15:34:23 12.37, -32.53 0.70 273
5 01/24/2015 16:20:19 16.57, 141.38 01/24/2015 16:16:51 16.57, 141.35 2.56 208
6 01/24/2015 17:08:20 -21.98, -49.75 01/24/2015 17:06:07 -22.03, -50.03 29.09 133
7 01/24/2015 17:56:28 26.47, 118.99 01/24/2015 17:55:30 26.58, 118.46 54.52 58
8 01/24/2015 18:45:01 -29.92, -72.51 01/24/2015 18:45:19 -30.08, -73.31 79.24 18
9 01/27/2015 04:42:31 29.94, 128.62 01/27/2015 04:33:15 30.15, 129.58 95.06 556
10 01/27/2015 05:31:54 -29.95, -63.72 01/27/2015 05:23:55 -30.10, -63.07 64.57 479
11 01/27/2015 06:21:25 30.00, 103.89 01/27/2015 06:14:43 30.05, 104.24 33.91 402
12 01/27/2015 07:10:44 -29.77, -88.40 01/27/2015 07:05:19 -29.76, -88.36 3.92 325
13 01/27/2015 07:53:17 4.59, 85.02 01/27/2015 07:48:59 4.59, 85.01 1.07 258
14 01/27/2015 08:36:17 18.49,-102.31 01/27/2015 08:33:06 18.52,-102.40 10.09 191
15 01/27/2015 09:24:32 -23.05, 66.38 01/27/2015 09:22:37 -23.10, 66.02 37.22 115
16 01/27/2015 10:12:39 27.59,-124.85 01/27/2015 10:11:59 27.71,-125.46 61.76 40
17 01/27/2015 11:01:31 -29.91, 43.37 01/27/2015 11:02:07 -30.10, 42.48 88.19 36
18 01/29/2015 20:59:02 29.99,-115.51 01/29/2015 20:50:05 30.19,-114.65 85.92 537
19 01/29/2015 21:48:25 -30.00, 52.14 01/29/2015 21:40:45 -30.14, 52.70 55.49 460
20 01/29/2015 22:37:55 29.98,-140.23 01/29/2015 22:31:32 30.03,-139.98 24.75 383
21 01/29/2015 23:26:00 -25.31, 28.61 01/29/2015 23:20:52 -25.31, 28.61 0.32 308
22 01/30/2015 00:06:49 -6.18,-156.80 01/30/2015 00:02:45 -6.18,-156.80 0.32 244
23 01/30/2015 00:52:30 19.53, 13.81 01/30/2015 00:49:37 19.59, 13.64 18.86 173
24 01/30/2015 01:40:44 -24.15,-177.48 01/30/2015 01:39:07 -24.23,-177.91 45.13 97
25 01/30/2015 02:28:52 28.63, -8.71 01/30/2015 02:28:30 28.78, -9.39 69.12 22
26 01/30/2015 03:18:01 -29.92, 159.25 01/30/2015 03:18:56 -30.11, 158.27 97.28 55
27 02/01/2015 13:15:31 29.95, 0.38 02/01/2015 13:06:53 30.13, 1.15 76.73 518
28 02/01/2015 14:04:54 -29.95, 168.04 02/01/2015 13:57:33 -30.07, 168.50 46.30 441
29 02/01/2015 14:54:24 29.94, -24.34 02/01/2015 14:48:20 29.97, -24.18 15.54 364
30 02/01/2015 15:39:51 -15.76, 146.73 02/01/2015 15:34:58 -15.76, 146.73 0.67 293
31 02/01/2015 16:20:38 -15.87, -38.80 02/01/2015 16:16:49 -15.87, -38.80 0.48 229
32 02/01/2015 17:08:40 20.71, 129.97 02/01/2015 17:06:06 20.77, 129.71 27.19 154
33 02/01/2015 17:56:55 -25.27, -61.32 02/01/2015 17:55:37 -25.35, -61.84 53.23 78
34 02/01/2015 18:45:02 29.81, 107.48 02/01/2015 18:44:59 29.95, 106.71 76.21 3
35 02/04/2015 04:42:30 -29.95, -51.36 02/04/2015 04:32:54 -30.17, -50.37 97.95 576
36 02/04/2015 05:32:00 29.94, 116.27 02/04/2015 05:23:41 30.07, 116.95 67.28 499
37 02/04/2015 06:21:23 -29.94, -76.08 02/04/2015 06:14:21 -30.01, -75.70 36.80 422
38 02/04/2015 07:10:54 30.00, 91.53 02/04/2015 07:05:10 30.03, 91.59 6.33 344
39 02/04/2015 07:53:59 -7.24, -95.52 02/04/2015 07:49:22 -7.24, -95.53 0.66 277
40 02/04/2015 08:36:43 -17.33, 77.41 02/04/2015 08:33:13 -17.34, 77.34 8.36 210
41 02/04/2015 09:24:50 21.87,-113.88 02/04/201
